QPF
0.34 0.32 0.36 0.43 0.28 0.19 0.13 0.05 0.04 0.04 0.04 0.02 0.01 0.00 0.01 0.01 0.02 0.02 0.06 0.13 0.14 0.10 0.08 0.09 0.12 0.12 0.10 0.08 0.05 0.04 0.03 0.03 0.02 0.02 0.01 0.01 0.01 0.01 0.01 0.01 0.01 0.00 0.00 0.00 0.00 0.00 0.00 0.01 0.01
0.25 0.29 0.35 0.41 0.25 0.11 0.08 0.05 0.06 0.05 0.02 0.01 0.00 0.00 0.00 0.00 0.01 0.02 0.06 0.14 0.11 0.09 0.08 0.09 0.13 0.13 0.12 0.11 0.09 0.06 0.05 0.03 0.03 0.03 0.02 0.02 0.02 0.02 0.01 0.01 0.01 0.01 0.01 0.01 0.00 0.00 0.00 0.00 0.01
0.26 0.42 0.46 0.30 0.15 0.08 0.05 0.06 0.07 0.07 0.04 0.02 0.01 0.00 0.00 0.01 0.02 0.03 0.05 0.10 0.12 0.12 0.12 0.13 0.17 0.15 0.13 0.12 0.12 0.10 0.09 0.08 0.06 0.06 0.05 0.05 0.04 0.03 0.03 0.02 0.02 0.02 0.02 0.02 0.01 0.01 0.01 0.00 0.01
0.27 0.51 0.39 0.19 0.09 0.06 0.04 0.05 0.07 0.06 0.03 0.01 0.00 0.00 0.00 0.01 0.02 0.03 0.05 0.08 0.13 0.14 0.12 0.13 0.15 0.13 0.12 0.11 0.10 0.11 0.11 0.11 0.10 0.10 0.09 0.09 0.07 0.07 0.06 0.07 0.05 0.04 0.04 0.04 0.03 0.03 0.01 0.01 0.01
0.37 0.45 0.28 0.16 0.08 0.05 0.04 0.04 0.05 0.06 0.03 0.01 0.00 0.00 0.00 0.01 0.03 0.04 0.04 0.05 0.05 0.07 0.06 0.06 0.09 0.09 0.09 0.10 0.09 0.09 0.10 0.10 0.09 0.11 0.12 0.12 0.11 0.11 0.10 0.10 0.08 0.07 0.05 0.05 0.05 0.04 0.03 0.02 0.01
0.36 0.33 0.18 0.11 0.09 0.07 0.06 0.04 0.04 0.03 0.02 0.00 0.00 0.00 0.00 0.00 0.02 0.03 0.03 0.03 0.03 0.04 0.03 0.03 0.04 0.05 0.05 0.06 0.07 0.08 0.09 0.08 0.08 0.10 0.12 0.14 0.14 0.14 0.14 0.13 0.12 0.10 0.08 0.07 0.06 0.04 0.04 0.04 0.03
0.32 0.26 0.16 0.11 0.08 0.07 0.05 0.05 0.04 0.03 0.02 0.01 0.00 0.00 0.00 0.00 0.01 0.02 0.02 0.02 0.02 0.02 0.02 0.02 0.02 0.02 0.03 0.03 0.03 0.04 0.05 0.06 0.07 0.08 0.10 0.11 0.12 0.13 0.13 0.14 0.15 0.14 0.13 0.12 0.09 0.07 0.06 0.06 0.05
0.24 0.17 0.13 0.10 0.08 0.06 0.05 0.05 0.05 0.03 0.02 0.00 0.00 0.00 0.00 0.00 0.01 0.01 0.01 0.01 0.01 0.01 0.01 0.01 0.01 0.01 0.01 0.01 0.02 0.02 0.03 0.03 0.05 0.06 0.06 0.08 0.09 0.10 0.11 0.12 0.15 0.18 0.18 0.17 0.16 0.13 0.10 0.10 0.10
0.20 0.15 0.10 0.09 0.08 0.06 0.04 0.04 0.04 0.02 0.01 0.01 0.00 0.00 0.00 0.00 0.00 0.00 0.00 0.00 0.00 0.00 0.00 0.00 0.00 0.00 0.00 0.00 0.00 0.00 0.01 0.01 0.02 0.03 0.04 0.05 0.04 0.05 0.07 0.10 0.14 0.18 0.21 0.23 0.22 0.20 0.17 0.15 0.11
0.17 0.12 0.09 0.07 0.05 0.06 0.06 0.06 0.04 0.02 0.01 0.01 0.00 0.00 0.00 0.00 0.00 0.00 0.00 0.00 0.00 0.00 0.00 0.00 0.00 0.00 0.00 0.00 0.00 0.00 0.00 0.00 0.00 0.00 0.01 0.01 0.02 0.03 0.05 0.06 0.11 0.12 0.17 0.23 0.23 0.23 0.22 0.18 0.11
0.12 0.09 0.08 0.06 0.05 0.06 0.06 0.05 0.03 0.02 0.01 0.01 0.00 0.00 0.00 0.00 0.00 0.00 0.00 0.00 0.00 0.00 0.00 0.00 0.00 0.00 0.00 0.00 0.00 0.00 0.00 0.00 0.00 0.00 0.00 0.00 0.01 0.02 0.04 0.04 0.06 0.07 0.10 0.11 0.14 0.17 0.14 0.11 0.08
0.10 0.07 0.06 0.05 0.06 0.06 0.07 0.05 0.03 0.01 0.00 0.00 0.00 0.00 0.00 0.00 0.00 0.00 0.00 0.00 0.00 0.00 0.00 0.00 0.00 0.00 0.00 0.00 0.00 0.00 0.00 0.00 0.00 0.00 0.00 0.01 0.01 0.01 0.03 0.04 0.05 0.06 0.08 0.08 0.07 0.08 0.10 0.08 0.08
0.10 0.06 0.04 0.05 0.07 0.07 0.06 0.04 0.03 0.01 0.00 0.00 0.00 0.00 0.00 0.00 0.00 0.00 0.00 0.00 0.00 0.00 0.00 0.00 0.00 0.00 0.00 0.00 0.00 0.00 0.00 0.00 0.00 0.00 0.00 0.00 0.00 0.01 0.02 0.03 0.05 0.05 0.07 0.08 0.08 0.09 0.10 0.09 0.07
0.09 0.06 0.04 0.04 0.05 0.05 0.05 0.03 0.02 0.01 0.00 0.00 0.00 0.00 0.00 0.00 0.00 0.00 0.00 0.00 0.00 0.00 0.00 0.00 0.00 0.00 0.00 0.00 0.00 0.00 0.00 0.00 0.00 0.00 0.00 0.00 0.00 0.01 0.02 0.03 0.04 0.04 0.05 0.06 0.06 0.08 0.09 0.09 0.08
0.07 0.06 0.04 0.03 0.03 0.04 0.04 0.03 0.01 0.00 0.01 0.00 0.00 0.00 0.00 0.00 0.00 0.00 0.00 0.00 0.00 0.00 0.00 0.00 0.00 0.00 0.00 0.00 0.00 0.00 0.00 0.00 0.00 0.00 0.00 0.00 0.00 0.01 0.02 0.03 0.03 0.03 0.03 0.04 0.05 0.06 0.07 0.08 0.10
0.08 0.05 0.04 0.03 0.03 0.03 0.04 0.02 0.00 0.01 0.01 0.01 0.00 0.00 0.00 0.00 0.00 0.00 0.00 0.00 0.00 0.00 0.00 0.00 0.00 0.00 0.00 0.00 0.00 0.00 0.00 0.00 0.00 0.00 0.00 0.00 0.00 0.01 0.01 0.03 0.03 0.03 0.03 0.04 0.05 0.07 0.07 0.08 0.09
0.08 0.04 0.02 0.02 0.02 0.04 0.06 0.02 0.00 0.00 0.00 0.00 0.00 0.00 0.00 0.00 0.00 0.00 0.00 0.00 0.00 0.00 0.00 0.00 0.00 0.00 0.00 0.00 0.00 0.00 0.00 0.00 0.00 0.00 0.00 0.01 0.00 0.01 0.01 0.01 0.03 0.04 0.04 0.05 0.05 0.06 0.05 0.06 0.08
0.05 0.03 0.01 0.01 0.01 0.03 0.04 0.01 0.00 0.00 0.00 0.00 0.00 0.00 0.00 0.00 0.00 0.00 0.00 0.00 0.00 0.00 0.00 0.00 0.00 0.00 0.00 0.00 0.00 0.00 0.00 0.00 0.00 0.00 0.00 0.01 0.00 0.00 0.00 0.01 0.02 0.04 0.05 0.04 0.04 0.05 0.05 0.05 0.07
0.04 0.02 0.00 0.00 0.01 0.01 0.02 0.01 0.00 0.00 0.00 0.00 0.00 0.00 0.00 0.00 0.00 0.00 0.00 0.00 0.00 0.00 0.00 0.00 0.00 0.00 0.00 0.00 0.00 0.00 0.00 0.00 0.01 0.01 0.01 0.01 0.01 0.00 0.00 0.00 0.01 0.02 0.04 0.03 0.03 0.04 0.04 0.05 0.06
0.04 0.02 0.00 0.00 0.00 0.01 0.01 0.00 0.00 0.00 0.00 0.00 0.00 0.00 0.00 0.00 0.00 0.00 0.00 0.00 0.00 0.00 0.00 0.00 0.00 0.00 0.00 0.00 0.00 0.00 0.00 0.00 0.01 0.01 0.01 0.00 0.00 0.00 0.00 0.00 0.00 0.01 0.01 0.02 0.03 0.03 0.03 0.04 0.05
0.02 0.01 0.00 0.00 0.01 0.01 0.00 0.00 0.00 0.00 0.00 0.00 0.00 0.00 0.00 0.00 0.00 0.00 0.00 0.00 0.00 0.00 0.00 0.00 0.00 0.00 0.00 0.00 0.00 0.00 0.00 0.00 0.00 0.00 0.00 0.00 0.00 0.00 0.00 0.00 0.00 0.00 0.00 0.00 0.01 0.01 0.03 0.03 0.03
0.01 0.00 0.00 0.00 0.00 0.00 0.00 0.00 0.00 0.00 0.00 0.00 0.00 0.00 0.00 0.00 0.00 0.00 0.00 0.00 0.00 0.00 0.00 0.00 0.00 0.00 0.00 0.00 0.00 0.00 0.00 0.00 0.00 0.00 0.00 0.00 0.00 0.00 0.00 0.00 0.00 0.00 0.00 0.00 0.00 0.01 0.01 0.02 0.03
0.02 0.01 0.01 0.00 0.00 0.00 0.00 0.00 0.00 0.00 0.00 0.00 0.00 0.00 0.00 0.00 0.00 0.00 0.00 0.00 0.00 0.00 0.00 0.00 0.00 0.00 0.00 0.00 0.00 0.00 0.00 0.00 0.00 0.00 0.00 0.00 0.00 0.00 0.00 0.00 0.00 0.00 0.00 0.00 0.00 0.00 0.00 0.01 0.02
0.03 0.01 0.00 0.00 0.00 0.00 0.00 0.00 0.00 0.00 0.00 0.00 0.00 0.00 0.00 0.00 0.00 0.00 0.00 0.00 0.00 0.00 0.00 0.00 0.00 0.00 0.00 0.00 0.00 0.00 0.00 0.00 0.00 0.00 0.00 0.00 0.00 0.00 0.00 0.00 0.00 0.00 0.00 0.00 0.00 0.00 0.00 0.02 0.01
0.01 0.00 0.00 0.00 0.00 0.00 0.00 0.00 0.00 0.00 0.00 0.00 0.00 0.00 0.00 0.00 0.00 0.00 0.00 0.00 0.00 0.00 0.00 0.00 0.00 0.00 0.00 0.00 0.00 0.00 0.00 0.00 0.00 0.00 0.00 0.00 0.00 0.00 0.00 0.00 0.00 0.00 0.00 0.00 0.00 0.00 0.00 0.00 0.01
0.00 0.00 0.00 0.00 0.00 0.00 0.00 0.00 0.00 0.00 0.00 0.00 0.00 0.00 0.00 0.00 0.00 0.00 0.00 0.00 0.00 0.00 0.00 0.00 0.00 0.00 0.00 0.00 0.00 0.00 0.00 0.00 0.00 0.00 0.00 0.00 0.00 0.00 0.00 0.00 0.00 0.00 0.00 0.00 0.00 0.00 0.00 0.00 0.00
0.00 0.00 0.00 0.00 0.00 0.00 0.00 0.00 0.00 0.00 0.00 0.00 0.00 0.00 0.00 0.00 0.00 0.00 0.00 0.00 0.00 0.00 0.00 0.00 0.00 0.00 0.00 0.00 0.00 0.00 0.00 0.00 0.00 0.00 0.00 0.00 0.00 0.00 0.00 0.00 0.00 0.00 0.00 0.00 0.00 0.00 0.00 0.00 0.00
0.00 0.00 0.00 0.00 0.00 0.00 0.00 0.00 0.00 0.00 0.00 0.00 0.00 0.00 0.00 0.00 0.00 0.00 0.00 0.00 0.00 0.00 0.00 0.00 0.00 0.00 0.00 0.00 0.00 0.00 0.00 0.00 0.00 0.00 0.00 0.00 0.00 0.00 0.00 0.00 0.00 0.00 0.00 0.00 0.00 0.00 0.00 0.00 0.00
0.00 0.00 0.00 0.00 0.00 0.00 0.00 0.00 0.00 0.00 0.00 0.00 0.00 0.00 0.00 0.00 0.00 0.00 0.00 0.00 0.00 0.00 0.00 0.00 0.00 0.00 0.00 0.00 0.00 0.00 0.00 0.00 0.00 0.00 0.00 0.00 0.00 0.00 0.00 0.00 0.00 0.00 0.00 0.00 0.00 0.00 0.00 0.00 0.00
0.00 0.00 0.00 0.00 0.00 0.00 0.00 0.00 0.00 0.00 0.00 0.00 0.00 0.00 0.00 0.00 0.00 0.00 0.00 0.00 0.00 0.00 0.00 0.00 0.00 0.00 0.00 0.00 0.00 0.00 0.00 0.00 0.00 0.00 0.00 0.00 0.00 0.00 0.00 0.00 0.00 0.00 0.00 0.00 0.00 0.00 0.00 0.00 0.00
MSLP
1011.50 1012.58 1013.72 1014.77 1015.60 1016.12 1016.30 1016.18 1015.86 1015.46 1015.11 1014.87 1014.79 1014.84 1014.95 1015.04 1015.01 1014.82 1014.46 1013.97 1013.42 1012.89 1012.47 1012.20 1012.10 1012.16 1012.31 1012.50 1012.69 1012.83 1012.91 1012.94 1012.93 1012.92 1012.93 1012.97 1013.03 1013.11 1013.19 1013.26 1013.30 1013.32 1013.33 1013.32 1013.32 1013.33 1013.34 1013.35 1013.35
1012.07 1013.32 1014.57 1015.64 1016.40 1016.77 1016.76 1016.42 1015.88 1015.30 1014.80 1014.49 1014.38 1014.44 1014.58 1014.71 1014.74 1014.59 1014.27 1013.82 1013.30 1012.82 1012.44 1012.21 1012.16 1012.26 1012.44 1012.66 1012.86 1013.00 1013.08 1013.10 1013.08 1013.07 1013.07 1013.09 1013.14 1013.19 1013.24 1013.27 1013.27 1013.26 1013.23 1013.21 1013.19 1013.19 1013.20 1013.21 1013.21
1012.66 1014.04 1015.34 1016.38 1017.03 1017.24 1017.03 1016.50 1015.79 1015.08 1014.50 1014.15 1014.05 1014.14 1014.32 1014.50 1014.56 1014.45 1014.16 1013.74 1013.26 1012.82 1012.49 1012.32 1012.32 1012.45 1012.66 1012.89 1013.08 1013.20 1013.26 1013.25 1013.22 1013.18 1013.17 1013.17 1013.20 1013.22 1013.23 1013.22 1013.18 1013.13 1013.08 1013.05 1013.03 1013.03 1013.05 1013.07 1013.08
1013.21 1014.66 1015.95 1016.91 1017.44 1017.48 1017.10 1016.42 1015.61 1014.83 1014.25 1013.92 1013.86 1013.99 1014.23 1014.44 1014.52 1014.43 1014.16 1013.76 1013.32 1012.93 1012.66 1012.55 1012.59 1012.74 1012.96 1013.16 1013.32 1013.40 1013.41 1013.36 1013.29 1013.23 1013.20 1013.18 1013.18 1013.18 1013.16 1013.12 1013.06 1012.99 1012.92 1012.88 1012.88 1012.89 1012.93 1012.98 1013.01
1013.68 1015.13 1016.36 1017.20 1017.58 1017.48 1016.97 1016.21 1015.36 1014.60 1014.06 1013.81 1013.82 1014.02 1014.29 1014.52 1014.62 1014.52 1014.27 1013.89 1013.50 1013.16 1012.94 1012.87 1012.94 1013.10 1013.29 1013.45 1013.55 1013.56 1013.50 1013.40 1013.28 1013.20 1013.14 1013.11 1013.10 1013.08 1013.05 1012.99 1012.91 1012.84 1012.78 1012.75 1012.77 1012.82 1012.89 1012.96 1013.02
1014.06 1015.44 1016.54 1017.24 1017.46 1017.23 1016.64 1015.86 1015.05 1014.38 1013.95 1013.81 1013.91 1014.18 1014.48 1014.72 1014.80 1014.71 1014.45 1014.11 1013.76 1013.47 1013.31 1013.28 1013.36 1013.50 1013.64 1013.73 1013.74 1013.66 1013.52 1013.35 1013.19 1013.08 1013.01 1012.98 1012.96 1012.94 1012.91 1012.84 1012.76 1012.69 1012.65 1012.65 1012.70 1012.79 1012.90 1013.01 1013.10
1014.33 1015.58 1016.52 1017.03 1017.10 1016.77 1016.16 1015.41 1014.70 1014.17 1013.90 1013.89 1014.09 1014.41 1014.73 1014.96 1015.03 1014.92 1014.67 1014.35 1014.05 1013.82 1013.71 1013.71 1013.80 1013.91 1013.98 1013.98 1013.88 1013.70 1013.48 1013.25 1013.06 1012.92 1012.85 1012.82 1012.81 1012.80 1012.76 1012.70 1012.62 1012.56 1012.53 1012.56 1012.65 1012.78 1012.93 1013.08 1013.19
1014.52 1015.60 1016.33 1016.65 1016.57 1016.17 1015.56 1014.90 1014.33 1013.97 1013.86 1013.98 1014.28 1014.64 1014.97 1015.17 1015.21 1015.09 1014.85 1014.57 1014.32 1014.16 1014.10 1014.13 1014.21 1014.28 1014.28 1014.18 1013.99 1013.72 1013.43 1013.15 1012.93 1012.78 1012.72 1012.70 1012.69 1012.68 1012.63 1012.56 1012.48 1012.42 1012.41 1012.47 1012.59 1012.76 1012.95 1013.12 1013.25
1014.66 1015.53 1016.04 1016.17 1015.96 1015.51 1014.93 1014.38 1013.96 1013.77 1013.82 1014.06 1014.43 1014.81 1015.12 1015.30 1015.31 1015.18 1014.96 1014.73 1014.54 1014.44 1014.44 1014.50 1014.57 1014.59 1014.53 1014.35 1014.08 1013.74 1013.40 1013.09 1012.86 1012.72 1012.66 1012.64 1012.64 1012.61 1012.54 1012.45 1012.35 1012.28 1012.27 1012.34 1012.49 1012.69 1012.91 1013.11 1013.25
1014.79 1015.44 1015.73 1015.68 1015.36 1014.87 1014.34 1013.89 1013.63 1013.59 1013.76 1014.10 1014.50 1014.89 1015.17 1015.32 1015.30 1015.17 1014.99 1014.81 1014.69 1014.66 1014.70 1014.78 1014.85 1014.84 1014.72 1014.49 1014.17 1013.79 1013.43 1013.12 1012.90 1012.77 1012.71 1012.70 1012.67 1012.62 1012.52 1012.38 1012.25 1012.15 1012.13 1012.19 1012.35 1012.56 1012.80 1013.02 1013.18
1014.91 1015.35 1015.45 1015.25 1014.83 1014.33 1013.85 1013.51 1013.37 1013.44 1013.71 1014.09 1014.51 1014.87 1015.12 1015.23 1015.21 1015.09 1014.95 1014.83 1014.77 1014.80 1014.88 1014.98 1015.04 1015.01 1014.86 1014.60 1014.26 1013.88 1013.53 1013.24 1013.04 1012.93 1012.88 1012.86 1012.81 1012.71 1012.56 1012.37 1012.19 1012.05 1012.00 1012.05 1012.20 1012.42 1012.67 1012.89 1013.05
1015.04 1015.31 1015.25 1014.93 1014.46 1013.96 1013.54 1013.28 1013.22 1013.37 1013.68 1014.08 1014.47 1014.80 1015.02 1015.10 1015.07 1014.98 1014.88 1014.82 1014.82 1014.89 1015.00 1015.11 1015.16 1015.11 1014.95 1014.69 1014.37 1014.02 1013.70 1013.45 1013.29 1013.20 1013.16 1013.11 1013.03 1012.88 1012.68 1012.44 1012.21 1012.03 1011.94 1011.96 1012.09 1012.29 1012.53 1012.75 1012.90
1015.19 1015.33 1015.15 1014.76 1014.27 1013.78 1013.41 1013.21 1013.21 1013.40 1013.71 1014.08 1014.44 1014.72 1014.90 1014.97 1014.95 1014.89 1014.83 1014.82 1014.86 1014.95 1015.07 1015.17 1015.21 1015.15 1015.00 1014.76 1014.48 1014.18 1013.92 1013.73 1013.60 1013.54 1013.49 1013.42 1013.30 1013.12 1012.88 1012.60 1012.32 1012.11 1011.99 1011.97 1012.06 1012.23 1012.44 1012.63 1012.76
1015.34 1015.39 1015.15 1014.73 1014.25 1013.81 1013.49 1013.33 1013.35 1013.53 1013.81 1014.13 1014.43 1014.67 1014.82 1014.88 1014.89 1014.86 1014.84 1014.86 1014.92 1015.01 1015.11 1015.19 1015.20 1015.15 1015.01 1014.82 1014.59 1014.36 1014.17 1014.03 1013.95 1013.89 1013.84 1013.75 1013.61 1013.40 1013.13 1012.84 1012.55 1012.31 1012.16 1012.11 1012.16 1012.28 1012.43 1012.57 1012.66
1015.48 1015.47 1015.22 1014.82 1014.39 1014.00 1013.72 1013.59 1013.61 1013.76 1013.98 1014.23 1014.47 1014.66 1014.79 1014.87 1014.90 1014.92 1014.93 1014.96 1015.01 1015.08 1015.14 1015.18 1015.17 1015.11 1015.00 1014.86 1014.70 1014.55 1014.43 1014.34 1014.28 1014.23 1014.16 1014.06 1013.91 1013.69 1013.43 1013.14 1012.87 1012.64 1012.47 1012.39 1012.38 1012.42 1012.50 1012.57 1012.60
1015.57 1015.55 1015.32 1014.98 1014.62 1014.30 1014.07 1013.96 1013.95 1014.03 1014.18 1014.35 1014.52 1014.68 1014.81 1014.91 1014.98 1015.03 1015.07 1015.11 1015.14 1015.16 1015.17 1015.16 1015.12 1015.07 1014.99 1014.91 1014.82 1014.74 1014.68 1014.63 1014.58 1014.52 1014.44 1014.33 1014.17 1013.97 1013.73 1013.49 1013.25 1013.04 1012.88 1012.76 1012.69 1012.66 1012.65 1012.63 1012.58
1015.59 1015.58 1015.41 1015.16 1014.90 1014.66 1014.48 1014.36 1014.31 1014.32 1014.37 1014.46 1014.57 1014.69 1014.82 1014.95 1015.07 1015.16 1015.23 1015.26 1015.26 1015.24 1015.19 1015.14 1015.08 1015.03 1014.99 1014.97 1014.95 1014.94 1014.93 1014.90 1014.85 1014.77 1014.67 1014.54 1014.38 1014.21 1014.02 1013.84 1013.66 1013.49 1013.34 1013.20 1013.07 1012.96 1012.84 1012.72 1012.60
1015.52 1015.55 1015.48 1015.34 1015.19 1015.03 1014.89 1014.76 1014.64 1014.56 1014.51 1014.50 1014.54 1014.64 1014.78 1014.95 1015.12 1015.26 1015.35 1015.39 1015.37 1015.30 1015.21 1015.12 1015.05 1015.02 1015.03 1015.06 1015.11 1015.16 1015.18 1015.16 1015.09 1014.99 1014.85 1014.70 1014.54 1014.40 1014.27 1014.15 1014.04 1013.92 1013.79 1013.64 1013.46 1013.27 1013.06 1012.85 1012.65
1015.36 1015.46 1015.50 1015.51 1015.47 1015.40 1015.29 1015.13 1014.93 1014.73 1014.56 1014.44 1014.41 1014.48 1014.64 1014.85 1015.07 1015.27 1015.40 1015.46 1015.43 1015.33 1015.21 1015.10 1015.04 1015.03 1015.08 1015.18 1015.30 1015.39 1015.43 1015.41 1015.32 1015.17 1014.99 1014.82 1014.66 1014.54 1014.47 1014.42 1014.37 1014.31 1014.20 1014.04 1013.82 1013.56 1013.28 1013.00 1012.75
1015.13 1015.34 1015.52 1015.67 1015.77 1015.78 1015.68 1015.46 1015.17 1014.83 1014.51 1014.27 1014.16 1014.19 1014.35 1014.60 1014.89 1015.16 1015.35 1015.44 1015.42 1015.33 1015.20 1015.09 1015.04 1015.06 1015.16 1015.32 1015.49 1015.62 1015.68 1015.65 1015.52 1015.34 1015.12 1014.91 1014.75 1014.65 1014.61 1014.61 1014.63 1014.60 1014.52 1014.36 1014.12 1013.82 1013.49 1013.17 1012.89
1014.87 1015.21 1015.56 1015.88 1016.10 1016.18 1016.07 1015.79 1015.36 1014.86 1014.38 1014.00 1013.78 1013.76 1013.92 1014.21 1014.57 1014.92 1015.18 1015.32 1015.34 1015.27 1015.16 1015.06 1015.03 1015.09 1015.24 1015.44 1015.65 1015.81 1015.89 1015.85 1015.70 1015.48 1015.22 1014.99 1014.81 1014.72 1014.70 1014.74 1014.79 1014.81 1014.75 1014.59 1014.35 1014.03 1013.69 1013.37 1013.10
1014.64 1015.14 1015.68 1016.17 1016.51 1016.64 1016.51 1016.13 1015.55 1014.87 1014.20 1013.65 1013.32 1013.23 1013.38 1013.71 1014.14 1014.57 1014.91 1015.13 1015.21 1015.18 1015.09 1015.02 1015.01 1015.10 1015.28 1015.51 1015.75 1015.93 1016.02 1015.98 1015.82 1015.58 1015.30 1015.04 1014.85 1014.76 1014.76 1014.81 1014.88 1014.92 1014.88 1014.74 1014.50 1014.21 1013.88 1013.59 1013.36
1014.49 1015.19 1015.92 1016.57 1017.02 1017.19 1017.01 1016.51 1015.76 1014.88 1014.01 1013.29 1012.83 1012.66 1012.79 1013.15 1013.64 1014.15 1014.58 1014.88 1015.03 1015.05 1015.00 1014.95 1014.96 1015.05 1015.24 1015.49 1015.74 1015.95 1016.04 1016.02 1015.86 1015.62 1015.33 1015.07 1014.88 1014.78 1014.77 1014.83 1014.90 1014.95 1014.92 1014.80 1014.60 1014.34 1014.06 1013.81 1013.64
1014.49 1015.38 1016.30 1017.09 1017.63 1017.80 1017.56 1016.93 1016.00 1014.92 1013.85 1012.96 1012.36 1012.11 1012.21 1012.58 1013.12 1013.71 1014.23 1014.61 1014.83 1014.90 1014.88 1014.85 1014.85 1014.94 1015.12 1015.36 1015.61 1015.82 1015.94 1015.93 1015.80 1015.58 1015.32 1015.07 1014.88 1014.78 1014.76 1014.81 1014.88 1014.92 1014.90 1014.80 1014.64 1014.42 1014.20 1014.01 1013.89
1014.65 1015.72 1016.79 1017.69 1018.28 1018.43 1018.11 1017.35 1016.25 1014.99 1013.74 1012.69 1011.97 1011.64 1011.70 1012.07 1012.65 1013.30 1013.89 1014.34 1014.62 1014.74 1014.74 1014.71 1014.69 1014.76 1014.90 1015.12 1015.35 1015.56 1015.70 1015.72 1015.63 1015.46 1015.24 1015.02 1014.85 1014.75 1014.73 1014.76 1014.81 1014.84 1014.83 1014.75 1014.62 1014.45 1014.29 1014.16 1014.09
1014.95 1016.16 1017.33 1018.30 1018.89 1019.00 1018.59 1017.71 1016.47 1015.05 1013.66 1012.48 1011.66 1011.27 1011.29 1011.66 1012.26 1012.95 1013.59 1014.09 1014.42 1014.56 1014.58 1014.53 1014.49 1014.51 1014.61 1014.78 1014.99 1015.20 1015.34 1015.41 1015.37 1015.26 1015.10 1014.93 1014.79 1014.71 1014.67 1014.68 1014.72 1014.73 1014.72 1014.65 1014.55 1014.43 1014.32 1014.23 1014.20
1015.33 1016.61 1017.83 1018.80 1019.35 1019.40 1018.91 1017.92 1016.58 1015.06 1013.58 1012.33 1011.44 1011.00 1011.00 1011.36 1011.96 1012.66 1013.33 1013.86 1014.21 1014.37 1014.39 1014.33 1014.25 1014.22 1014.27 1014.39 1014.57 1014.76 1014.92 1015.03 1015.05 1015.01 1014.92 1014.81 1014.71 1014.63 1014.60 1014.60 1014.60 1014.60 1014.58 1014.52 1014.44 1014.35 1014.27 1014.22 1014.20
1015.71 1016.99 1018.17 1019.07 1019.56 1019.52 1018.95 1017.90 1016.51 1014.96 1013.46 1012.19 1011.29 1010.83 1010.81 1011.15 1011.74 1012.43 1013.10 1013.64 1013.99 1014.16 1014.17 1014.09 1013.99 1013.92 1013.91 1013.99 1014.14 1014.31 1014.49 1014.62 1014.71 1014.73 1014.70 1014.65 1014.59 1014.54 1014.51 1014.49 1014.48 1014.46 1014.42 1014.37 1014.30 1014.23 1014.17 1014.12 1014.10
1015.97 1017.17 1018.24 1019.02 1019.39 1019.26 1018.63 1017.56 1016.19 1014.68 1013.23 1012.01 1011.15 1010.71 1010.68 1011.00 1011.56 1012.22 1012.86 1013.38 1013.73 1013.90 1013.91 1013.83 1013.71 1013.61 1013.58 1013.62 1013.74 1013.90 1014.08 1014.24 1014.37 1014.44 1014.48 1014.48 1014.45 1014.43 1014.40 1014.37 1014.34 1014.31 1014.26 1014.20 1014.14 1014.08 1014.02 1013.97 1013.93
1016.06 1017.10 1017.99 1018.60 1018.82 1018.60 1017.93 1016.89 1015.59 1014.18 1012.86 1011.75 1010.98 1010.59 1010.57 1010.87 1011.38 1011.99 1012.58 1013.07 1013.40 1013.57 1013.59 1013.52 1013.41 1013.31 1013.27 1013.30 1013.40 1013.55 1013.73 1013.91 1014.06 1014.17 1014.25 1014.29 1014.30 1014.29 1014.27 1014.23 1014.19 1014.15 1014.09 1014.03 1013.97 1013.91 1013.85 1013.79 1013.73
Thickness
5791 5788 5784 5772 5753 5738 5736 5748 5756 5757 5759 5764 5767 5762 5754 5748 5743 5740 5760 5769 5769 5767 5765 5763 5761 5759 5757 5756 5754 5752 5751 5750 5750 5750 5750 5750 5750 5751 5751 5751 5752 5752 5752 5753 5753 5754 5755 5756 5757
5789 5786 5775 5760 5741 5728 5736 5752 5754 5759 5764 5767 5765 5760 5753 5750 5755 5756 5761 5765 5765 5763 5760 5759 5757 5755 5753 5752 5750 5749 5747 5747 5746 5746 5746 5747 5747 5747 5748 5749 5749 5750 5750 5750 5751 5752 5753 5753 5754
5788 5782 5763 5747 5736 5732 5740 5754 5757 5764 5768 5765 5757 5755 5751 5748 5754 5756 5760 5762 5760 5758 5755 5753 5752 5750 5748 5747 5746 5744 5743 5743 5743 5743 5743 5743 5743 5744 5745 5746 5747 5747 5748 5748 5749 5749 5750 5751 5752
5782 5767 5753 5740 5736 5746 5751 5757 5761 5761 5764 5763 5756 5748 5750 5756 5756 5757 5759 5758 5755 5753 5751 5749 5747 5745 5744 5742 5741 5740 5739 5738 5739 5739 5739 5739 5740 5741 5742 5743 5744 5745 5746 5746 5746 5747 5748 5749 5750
5775 5757 5741 5734 5740 5751 5758 5761 5762 5757 5756 5756 5752 5743 5743 5754 5757 5757 5755 5753 5750 5747 5745 5743 5741 5739 5738 5736 5735 5734 5734 5734 5734 5734 5734 5735 5736 5737 5738 5739 5741 5742 5743 5744 5744 5745 5745 5746 5747
5760 5750 5734 5729 5739 5752 5758 5762 5760 5756 5754 5754 5749 5741 5741 5751 5752 5751 5750 5747 5745 5741 5739 5737 5735 5733 5731 5730 5729 5729 5729 5728 5728 5728 5729 5730 5731 5733 5734 5736 5737 5739 5740 5741 5742 5742 5743 5744 5745
5754 5743 5736 5736 5737 5745 5756 5762 5757 5753 5751 5752 5752 5738 5740 5746 5748 5748 5746 5742 5739 5736 5733 5731 5729 5727 5725 5724 5723 5723 5722 5722 5722 5722 5723 5725 5726 5727 5730 5732 5733 5735 5736 5737 5739 5740 5741 5742 5743
5761 5745 5737 5734 5735 5743 5757 5760 5760 5755 5751 5758 5754 5738 5735 5744 5746 5743 5740 5736 5733 5730 5727 5725 5723 5721 5719 5718 5717 5716 5716 5716 5716 5716 5717 5718 5720 5722 5724 5726 5728 5730 5732 5733 5735 5737 5738 5739 5740
5761 5738 5730 5735 5737 5744 5756 5755 5757 5761 5754 5753 5752 5748 5747 5746 5742 5736 5731 5727 5725 5723 5721 5719 5717 5715 5714 5712 5711 5711 5710 5710 5710 5710 5711 5712 5713 5715 5717 5720 5722 5725 5727 5729 5731 5733 5734 5736 5737
5751 5732 5738 5747 5749 5749 5753 5752 5753 5751 5745 5743 5744 5745 5746 5741 5735 5729 5724 5720 5718 5717 5716 5714 5712 5710 5708 5707 5705 5704 5704 5704 5704 5704 5705 5706 5707 5709 5711 5714 5716 5719 5721 5724 5726 5728 5730 5732 5733
5749 5740 5747 5751 5754 5755 5752 5752 5755 5745 5737 5741 5740 5739 5738 5734 5729 5725 5721 5719 5716 5714 5712 5710 5707 5705 5703 5701 5700 5699 5698 5698 5698 5698 5699 5699 5700 5702 5704 5707 5709 5712 5715 5719 5721 5723 5725 5728 5730
5745 5746 5750 5751 5755 5754 5752 5752 5749 5746 5747 5752 5748 5743 5736 5730 5726 5723 5719 5717 5714 5711 5709 5706 5704 5701 5698 5696 5695 5693 5693 5692 5692 5692 5693 5693 5694 5695 5698 5700 5703 5706 5709 5712 5715 5718 5721 5724 5726
5741 5744 5751 5753 5754 5754 5752 5748 5747 5747 5752 5751 5746 5739 5733 5729 5725 5723 5720 5716 5712 5708 5706 5703 5700 5697 5695 5692 5690 5689 5688 5687 5686 5686 5687 5687 5687 5689 5691 5693 5697 5700 5703 5706 5709 5713 5716 5719 5722
5742 5743 5745 5749 5749 5750 5746 5744 5743 5746 5749 5744 5739 5734 5731 5727 5724 5720 5717 5712 5709 5706 5703 5700 5697 5694 5692 5689 5687 5685 5683 5682 5681 5680 5680 5681 5682 5683 5685 5687 5691 5694 5698 5701 5705 5708 5711 5714 5718
5741 5736 5739 5744 5745 5746 5743 5734 5739 5747 5744 5738 5735 5731 5728 5725 5722 5719 5716 5712 5709 5705 5702 5699 5696 5693 5689 5687 5684 5682 5680 5678 5677 5676 5675 5676 5677 5678 5680 5682 5685 5689 5692 5696 5699 5703 5706 5709 5713
5732 5725 5721 5737 5741 5742 5734 5721 5741 5746 5739 5732 5729 5727 5724 5723 5721 5719 5716 5713 5709 5705 5701 5698 5696 5692 5688 5685 5682 5680 5677 5675 5673 5672 5671 5672 5672 5673 5675 5677 5680 5684 5687 5691 5694 5697 5700 5703 5707
5716 5710 5714 5728 5739 5737 5729 5723 5739 5742 5737 5730 5726 5723 5720 5719 5719 5718 5716 5713 5709 5705 5701 5697 5694 5690 5687 5684 5681 5679 5676 5673 5671 5670 5669 5668 5668 5669 5671 5673 5676 5679 5682 5685 5688 5691 5694 5697 5701
5707 5709 5714 5721 5734 5731 5723 5724 5735 5737 5734 5728 5724 5721 5718 5717 5717 5717 5716 5712 5709 5704 5701 5697 5693 5690 5687 5684 5681 5678 5675 5672 5670 5668 5667 5666 5666 5666 5667 5669 5671 5674 5677 5679 5682 5685 5689 5692 5696
5722 5716 5716 5726 5736 5727 5721 5723 5731 5733 5729 5725 5721 5719 5717 5717 5718 5717 5715 5712 5707 5703 5700 5696 5693 5690 5687 5683 5679 5675 5672 5670 5669 5667 5665 5665 5664 5664 5665 5666 5667 5670 5672 5674 5677 5680 5683 5686 5691
5720 5714 5716 5726 5733 5726 5719 5720 5729 5731 5729 5728 5725 5721 5719 5717 5716 5715 5713 5710 5706 5703 5699 5696 5693 5690 5687 5684 5680 5676 5672 5670 5668 5666 5665 5664 5663 5663 5663 5663 5664 5666 5667 5669 5672 5675 5677 5681 5685
5716 5715 5718 5720 5724 5723 5718 5713 5722 5730 5732 5731 5729 5726 5722 5720 5717 5714 5712 5709 5705 5702 5700 5697 5693 5691 5688 5685 5681 5677 5674 5671 5668 5666 5664 5663 5662 5662 5661 5662 5662 5662 5664 5665 5667 5670 5673 5675 5679
5712 5726 5725 5721 5708 5698 5706 5687 5710 5720 5724 5727 5727 5725 5723 5723 5719 5715 5712 5709 5706 5704 5701 5698 5695 5692 5689 5686 5682 5677 5672 5668 5666 5664 5663 5663 5662 5662 5661 5661 5660 5660 5661 5662 5664 5667 5669 5671 5672
5721 5726 5721 5715 5704 5693 5696 5686 5697 5714 5716 5723 5727 5726 5725 5724 5721 5717 5714 5711 5709 5706 5702 5699 5695 5692 5690 5687 5683 5678 5674 5670 5668 5665 5664 5663 5662 5661 5661 5660 5659 5659 5659 5660 5661 5663 5665 5666 5668
5724 5715 5705 5693 5686 5678 5691 5683 5689 5703 5717 5727 5730 5729 5727 5725 5722 5719 5716 5712 5709 5706 5703 5699 5696 5693 5691 5687 5684 5680 5676 5672 5669 5667 5664 5662 5661 5661 5660 5660 5659 5658 5658 5659 5659 5660 5661 5662 5664
5718 5696 5676 5675 5664 5671 5690 5685 5693 5719 5726 5731 5733 5731 5729 5726 5722 5717 5714 5711 5709 5706 5703 5700 5696 5694 5692 5688 5685 5681 5678 5674 5670 5667 5664 5662 5660 5660 5660 5659 5658 5657 5657 5657 5657 5657 5658 5659 5660
5709 5699 5675 5666 5661 5669 5684 5681 5705 5727 5733 5737 5737 5735 5730 5725 5723 5719 5717 5714 5711 5708 5705 5701 5698 5695 5693 5690 5686 5683 5679 5675 5672 5669 5666 5663 5661 5660 5660 5659 5658 5657 5657 5656 5655 5655 5655 5655 5655
5703 5696 5693 5673 5670 5665 5672 5687 5711 5731 5733 5734 5733 5731 5728 5726 5724 5722 5719 5716 5713 5710 5707 5704 5700 5697 5694 5691 5688 5685 5681 5678 5674 5671 5668 5665 5663 5662 5660 5659 5658 5656 5656 5655 5653 5652 5651 5651 5651
5712 5694 5677 5668 5659 5657 5668 5680 5693 5717 5725 5729 5729 5728 5728 5727 5725 5723 5720 5718 5715 5712 5709 5706 5702 5699 5697 5693 5690 5687 5683 5680 5676 5673 5670 5667 5665 5663 5661 5659 5657 5655 5654 5653 5651 5650 5648 5648 5647
5701 5693 5678 5663 5661 5651 5655 5677 5712 5719 5726 5727 5728 5730 5730 5728 5726 5724 5722 5720 5717 5713 5710 5707 5704 5700 5698 5695 5691 5688 5685 5681 5678 5674 5672 5669 5666 5664 5661 5659 5657 5655 5653 5651 5649 5647 5646 5644 5644
5712 5699 5682 5672 5666 5655 5652 5676 5723 5723 5727 5729 5730 5731 5731 5730 5729 5727 5724 5720 5716 5713 5711 5708 5705 5702 5699 5696 5692 5689 5686 5682 5679 5676 5673 5670 5667 5664 5661 5659 5656 5654 5652 5650 5647 5645 5643 5642 5641